Location: Katowice
(50.2611°N, 19.0242°E)
Time: 05:44:56
(UTC+02:00)

Vanguard 1 - Pass Details

Date: 03 October 2020
Orbit: 650 x 3832 km, 34.2° (Epoch: 21 October)

Event Time Altitude Azimuth Distance (km) Brightness Sun altitude
Rises 19:30:08 0° 212° (SSW) 5,648 14.3 -12.5°
Reaches altitude 10° 19:36:53 10° 190° (S) 3,853 13.1 -13.6°
Maximum altitude 19:40:43 13° 165° (SSE) 3,162 12.4 -14.2°
Enters shadow 19:43:50 10° 140° (SE) 3,027 12.1 -14.6°
